This is the latest recevied weather packets stored in our database for station/object SQ9NFI-4. If no packets are shown the sender has not sent any weather packets the latest 10 day(s).
| Time | Temp. | Humidity | Pressure | Rain* | Wind** | Luminosity | Snow |
|---|---|---|---|---|---|---|---|
| 1777363832 | 10.56° C | 34% | 1024.4 hPa | 0 mm | - | 547 W/m² | - |
| 1777363532 | 10° C | 35% | 1024.4 hPa | 0 mm | - | 538 W/m² | - |
| 1777363232 | 10° C | 34% | 1024.4 hPa | 0 mm | - | 529 W/m² | - |
| 1777362932 | 9.44° C | 37% | 1024.4 hPa | 0 mm | - | 516 W/m² | - |
| 1777362632 | 9.44° C | 37% | 1024.4 hPa | 0 mm | - | 456 W/m² | - |
| 1777362332 | 9.44° C | 36% | 1024.4 hPa | 0 mm | - | 496 W/m² | - |
| 1777362032 | 9.44° C | 37% | 1024.4 hPa | 0 mm | - | 483 W/m² | - |
| 1777361732 | 9.44° C | 37% | 1024.4 hPa | 0 mm | - | 469 W/m² | - |
| 1777361432 | 9.44° C | 38% | 1024.4 hPa | 0 mm | - | 462 W/m² | - |
| 1777361132 | 9.44° C | 39% | 1024.4 hPa | 0 mm | - | 449 W/m² | - |
| 1777360832 | 8.33° C | 40% | 1024.4 hPa | 0 mm | - | 435 W/m² | - |
| 1777360532 | 8.33° C | 40% | 1024.4 hPa | 0 mm | - | 419 W/m² | - |
| 1777360232 | 8.89° C | 40% | 1024.4 hPa | 0 mm | - | 405 W/m² | - |
| 1777359932 | 7.78° C | 40% | 1024.4 hPa | 0 mm | - | 392 W/m² | - |
| 1777359632 | 8.33° C | 41% | 1024.4 hPa | 0 mm | - | 388 W/m² | - |
| 1777359332 | 8.33° C | 41% | 1024.4 hPa | 0 mm | - | 367 W/m² | - |
| 1777359032 | 7.78° C | 42% | 1024.4 hPa | 0 mm | - | 365 W/m² | - |
| 1777358732 | 7.78° C | 42% | 1024.4 hPa | 0 mm | - | 350 W/m² | - |
| 1777358432 | 6.67° C | 42% | 1024.4 hPa | 0 mm | - | 336 W/m² | - |
| 1777358132 | 7.22° C | 43% | 1023.7 hPa | 0 mm | - | 327 W/m² | - |
| 1777357832 | 7.22° C | 43% | 1023.7 hPa | 0 mm | - | 313 W/m² | - |
| 1777357532 | 7.78° C | 42% | 1023.7 hPa | 0 mm | - | 314 W/m² | - |
| 1777357232 | 7.78° C | 43% | 1023.7 hPa | 0 mm | - | 301 W/m² | - |
| 1777356932 | 7.22° C | 43% | 1023.7 hPa | 0 mm | - | 262 W/m² | - |
| 1777356632 | 7.22° C | 43% | 1023.7 hPa | 0 mm | - | 266 W/m² | - |
* Rain latest hour (hover to see other rain measurements)
** Current wind speed in m/s (hover to see current wind gust speed)